Regional Weather Roundup
Issued by NWS Charleston, SC

Current Version | Previous Version | Graphics & Text | Print | Product List | Glossary On
Versions: 1 2 3 4 5 6 7 8 9 10 11 12 13 14 15 16 17 18 19 20 21 22 23 24 25 26 27 28 29 30 31 32 33 34 35 36 37 38 39 40 41 42 43 44 45 46 47 48 49 50
000 ASUS42 KCHS 011910 RWRCHS REGIONAL WEATHER ROUNDUP NATIONAL WEATHER SERVICE CHARLESTON SC 300 PM EDT MON SEP 01 2014 NOTE: "FAIR" INDICATES FEW OR NO CLOUDS BELOW 12,000 FEET WITH NO SIGNIFICANT WEATHER AND/OR OBSTRUCTIONS TO VISIBILITY. NOT ALL STATIONS ARE QUALITY CONTROLLED BY THE NATIONAL WEATHER SERVICE. USE DATA WITH CAUTION...ESPECIALLY DEWPOINT OBSERVATIONS. SCZ027-030-031-034>040-042>050-012000- ...SOUTH CAROLINA... CITY SKY/WX TMP DP RH WIND PRES REMARKS N CHARLESTON MOSUNNY 92 76 59 SE9 30.08F HX 104 WATERFRONT PRK N/A 86 N/A N/A S13 N/A FORT JOHNSON NOT AVBL MOUNT PLEASANT FAIR 88 79 74 SE8 30.09S HX 102 JOHNS ISLAND CLEAR 90 77 66 S8 30.09F HX 102 PINOPOLIS N/A 93 70 46 CALM 30.01F HX 99 MONCKS CORNER NOT AVBL SUMMERVILLE FAIR 93 72 49 S3 30.08F HX 100 BEAUFORT MCAS PTSUNNY 94 72 48 CALM 30.07F HX 102 BEAUFORT ARPT FAIR 90 73 58 S6 30.08F HX 98 HILTON HEAD IS SUNNY 86 73 66 S5 30.10F HX 93 GEORGETOWN NOT AVBL WALTERBORO CLOUDY 93 64 38 E3 30.07F HX 95 ORANGEBURG MOSUNNY 93 70 46 S5 30.07F HX 99 BARNWELL FAIR 93 73 52 SE6 30.08F HX 102 AIKEN TSTM 82 72 69 S15G22 30.13R MANNING FAIR 95 73 49 S6 30.07F HX 105 KINGSTREE NOT AVBL COLUMBIA MOSUNNY 97 67 37 VRB3 30.05F HX 101 SUMTER MOSUNNY 95 69 42 SW6 30.05F HX 99 FLORENCE MOSUNNY 96 70 42 VRB3 30.05F HX 102 MYRTLE BEACH MOSUNNY 90 75 62 S14 30.09F HX 100 N MYRTLE BEACH SUNNY 87 76 69 S12 30.08F HX 97 $$ GAZ063-065-086>088-099>101-113>116-118-119-134-136>141-150-012000- ...GEORGIA... CITY SKY/WX TMP DP RH WIND PRES REMARKS SAVANNAH ARPT PTSUNNY 93 74 53 SE12 30.07F HX 103 HUNTER AAF MOSUNNY 91 76 62 VRB7 30.06F HX 103 FORT STEWART MOSUNNY 93 72 50 SE8 30.06F HX 101 STATESBORO NOT AVBL SYLVANIA MOCLDY 87 69 56 CALM 30.08F HX 91 CLAXTON NOT AVBL THOMSON MOSUNNY 97 74 47 N3 30.11F HX 107 AUGUSTA-BUSH MOSUNNY 97 67 37 S8 30.05F HX 101 AUGUSTA-DANIEL MOSUNNY 97 67 37 VRB3 30.07F HX 101 SWAINSBORO MOCLDY 99 70 39 S5 30.07F HX 105 VIDALIA N/A 95 72 46 CALM 30.08F HX 103 ALMA MOSUNNY 92 74 55 S7 30.07F HX 101 WAYCROSS PTSUNNY 94 78 59 E3 30.07F HX 108 JESUP N/A 97 75 49 E5 30.07F HX 109 BRUNSWICK MOSUNNY 95 72 46 S6 30.08F HX 103 SAINT SIMONS SUNNY 89 75 63 SE12 30.08F HX 99 $$ SCZ027-028-034-036>038-045-046-048>050-GAZ119-141-012000- ...LAKE AND SUPPLEMENTAL COASTAL OBSERVATIONS... STATION/POSITION TIME TEMP WIND PRES WAVE SWELL AIR SEA DIR/SP/G HT/PER HT/PER/DIR (UTC) (F) (DEG/KT/KT) (MB) (FT/S) (FT/S/D) UPR LAKE MARION NOT AVBL WINYAH BAY 1800 85 150/ 8 1019.0S LAKE MURRAY 1800 92 180/ 5/ 6 1017.6F ACE BASIN NERRS 1800 89 180/ 1 1020.0S FORT PULASKI 1900 85 160/ 5/ 8 1019.1F SAPELO ISLAND 1800 92 130/ 7 1020.0F $$ ANZ835-935-AMZ111-154-330-350-352-354-374-450-454-472-012000- ...C-MAN AND BUOY OBSERVATIONS... STATION/POSITION TIME TEMP WIND PRES WAVE SWELL AIR SEA DIR/SP/G HT/PER HT/PER/DIR (UTC) (F) (DEG/KT/KT) (MB) (FT/S) (FT/S/D) FOLLY BEACH CMAN 1800 85 170/ 8/ 9 1019.8F BUOY 41004 1900 83 85 150/ 6/ 8 1018.7F 2/ 8 2/ 8 BUOY 41008 1900 84 90 170/ 4/ 6 1019.1F 2/ 9 2/120/ 9 5E ST. MARYS GA 1900 86 N/A 2/ 8 FRYING PAN BUOY NOT AVBL BUOY 41025 1900 82 200/ 14/ 16 1018.5F 3/ 9 2/ 80/ 9 CAPE LOOKOUT NC 1800 84 210/ 7/ 9 1019.1F BUOY 41002 1835 82 85 210/ 6/ 8 1020.9F 3/ 9 3/ 90/ 9 BUOY 41010 1900 83 86 110/ 4/ 6 1019.8F 2/ 8 2/100/ 8 BUOY 41012 NOT AVBL ST AUGUSTINE FL 1900 84 110/ 10/ 11 1019.7F CAPERS NEARSHORE 1800 86 170/ 6/ 8 N/A FRIPP NEARSHORE NOT AVBL $$

USA.gov is the U.S. government's official web portal to all federal, state and local government web resources and services.